Weather History for KRDR - September, 2013

Change the Weather History Date:

Friday, September 27, 2013

  Actual Average Record
Temperature  
Mean Temperature 52 °F -  
Max Temperature 55 °F 61 °F 86 °F (2014)
Min Temperature 48 °F 37 °F 30 °F (2000)
Degree Days  
Heating Degree Days 14    
Growing Degree Days 2 (Base 50)    
Moisture  
Dew Point 49 °F    
Average Humidity 91    
Maximum Humidity 100    
Minimum Humidity 72    
Precipitation  
Precipitation 0.00 in - - ()
Sea Level Pressure  
Sea Level Pressure 29.80 in    
Wind  
Wind Speed 6 mph (NNW)    
Max Wind Speed 12 mph    
Max Gust Speed -    
Visibility 9 miles    
Events Rain    
Averages and records for this station are not official NWS values.
T = Trace of Precipitation, MM = Missing Value Source: NWS Daily Summary

Daily Weather History Graph

Daily Weather History Graph

Search for Another Location

Airport or City:

Trip Planner

Search our weather history database for the weather conditions in past years. The results will help you decide how hot, cold, wet, or windy it might be!

Date:

Astronomy

Sep. 27, 2013 Rise Set
Actual Time 7:23 AM CDT 7:16 PM CDT
Civil Twilight 6:52 AM CDT 7:47 PM CDT
Nautical Twilight 6:16 AM CDT 8:23 PM CDT
Astronomical Twilight 5:39 AM CDT 9:00 PM CDT
Moon No Moon Rise 3:19 PM CDT (9/27)
Length of Visible Light 12h 54m
Length of Day
11h 52m
Last Quarter, 45% of the Moon is Illuminated
Sep 27
Last Quarter
Oct 4
New
Oct 11
First Quarter
Oct 18
Full
Oct 26
Last Quarter

Hourly Weather History & Observations

Time (CDT) Temp. Dew Point Humidity Pressure Visibility Wind Dir Wind Speed Gust Speed Precip Events Conditions
12:58 AM 55.8 °F 48.2 °F 76% 29.83 in 10.0 mi NNW 6.9 mph - N/A   Clear
1:58 AM 52.7 °F 46.9 °F 81% 29.85 in 10.0 mi North 4.6 mph - N/A   Clear
2:58 AM 54.7 °F 45.7 °F 72% 29.83 in 10.0 mi NNW 5.8 mph - N/A   Overcast
3:58 AM 54.3 °F 45.5 °F 72% 29.83 in 10.0 mi North 5.8 mph - N/A   Mostly Cloudy
4:58 AM 52.5 °F 45.3 °F 76% 29.82 in 10.0 mi North 10.4 mph - N/A   Mostly Cloudy
5:14 AM 53.6 °F 44.6 °F 72% 29.80 in 10.0 mi North 11.5 mph - N/A   Light Drizzle
5:39 AM 51.8 °F 46.4 °F 82% 29.81 in 10.0 mi NNW 6.9 mph - N/A   Overcast
5:58 AM 51.3 °F 46.8 °F 85% 29.81 in 10.0 mi North 6.9 mph - 0.00 in   Overcast
6:08 AM 51.8 °F 46.4 °F 82% 29.81 in 10.0 mi NW 4.6 mph - N/A Rain Light Rain
6:27 AM 51.8 °F 46.4 °F 82% 29.84 in 10.0 mi WNW 6.9 mph - N/A   Overcast
6:34 AM 51.8 °F 46.4 °F 82% 29.82 in 10.0 mi NNW 8.1 mph - N/A Rain Light Rain
6:49 AM 50.0 °F 46.4 °F 87% 29.80 in 10.0 mi NNW 5.8 mph - N/A   Overcast
6:58 AM 50.4 °F 46.0 °F 85% 29.82 in 10.0 mi North 6.9 mph - 0.00 in   Overcast
7:46 AM 50.0 °F 46.4 °F 87% 29.83 in 7.0 mi West 9.2 mph - N/A Rain Light Rain
7:51 AM 50.0 °F 46.4 °F 87% 29.82 in 2.5 mi Variable 1.2 mph - N/A Rain Heavy Rain
7:56 AM 50.0 °F 46.4 °F 87% 29.81 in 2.5 mi NNW 4.6 mph - N/A Rain Light Rain
7:58 AM 49.5 °F 47.3 °F 92% 29.84 in 2.5 mi NNW 3.5 mph - 0.00 in Rain Light Rain
8:03 AM 48.2 °F 48.2 °F 100% 29.81 in 8.0 mi NW 6.9 mph - N/A Rain Light Rain
8:09 AM 48.2 °F 48.2 °F 100% 29.81 in 10.0 mi North 6.9 mph - N/A   Overcast
8:22 AM 48.2 °F 48.2 °F 100% 29.82 in 7.0 mi North 3.5 mph - N/A Rain Light Rain
8:25 AM 48.2 °F 48.2 °F 100% 29.81 in 6.0 mi North 5.8 mph - N/A Rain Light Rain
8:42 AM 48.2 °F 48.2 °F 100% 29.81 in 10.0 mi NNW 5.8 mph - N/A   Overcast
8:58 AM 48.9 °F 48.4 °F 98% 29.84 in 10.0 mi North 8.1 mph - 0.00 in   Overcast
9:58 AM 49.5 °F 48.2 °F 95% 29.82 in 10.0 mi North 8.1 mph - N/A   Overcast
10:23 AM 50.0 °F 48.2 °F 94% 29.79 in 10.0 mi North 5.8 mph - N/A   Overcast
10:58 AM 51.6 °F 48.9 °F 90% 29.81 in 10.0 mi North 4.6 mph - N/A   Overcast
11:03 AM 51.8 °F 50.0 °F 94% 29.81 in 10.0 mi North 5.8 mph - N/A   Overcast
11:33 AM 51.8 °F 48.2 °F 88% 29.79 in 10.0 mi North 5.8 mph - N/A   Overcast
11:40 AM 51.8 °F 48.2 °F 88% 29.79 in 10.0 mi North 4.6 mph - N/A   Light Drizzle
11:58 AM 51.3 °F 49.8 °F 95% 29.81 in 10.0 mi North 5.8 mph - 0.00 in   Light Drizzle
12:03 PM 51.8 °F 50.0 °F 94% 29.79 in 10.0 mi North 8.1 mph - N/A   Light Drizzle
12:05 PM 51.8 °F 50.0 °F 94% 29.79 in 10.0 mi North 5.8 mph - N/A   Overcast
12:12 PM 51.8 °F 50.0 °F 94% 29.79 in 10.0 mi North 4.6 mph - N/A   Light Drizzle
12:47 PM 51.8 °F 50.0 °F 94% 29.77 in 8.0 mi North 8.1 mph - N/A   Light Drizzle
12:48 PM 51.8 °F 50.0 °F 94% 29.77 in 8.0 mi North 8.1 mph - N/A   Light Drizzle
12:53 PM 51.8 °F 50.0 °F 94% 29.77 in 10.0 mi North 9.2 mph - N/A   Overcast
12:56 PM 51.8 °F 50.0 °F 94% 29.77 in 10.0 mi North 9.2 mph - N/A   Light Drizzle
12:58 PM 51.8 °F 50.0 °F 94% 29.80 in 10.0 mi North 9.2 mph - 0.00 in   Light Drizzle
1:14 PM 51.8 °F 51.8 °F 100% 29.78 in 10.0 mi North 8.1 mph - N/A   Overcast
1:24 PM 51.8 °F 51.8 °F 100% 29.77 in 10.0 mi NNE 6.9 mph - N/A   Overcast
1:49 PM 51.8 °F 50.0 °F 94% 29.77 in 10.0 mi North 8.1 mph - N/A   Overcast
1:58 PM 52.0 °F 50.4 °F 94% 29.80 in 10.0 mi North 8.1 mph - 0.00 in   Overcast
2:03 PM 51.8 °F 50.0 °F 94% 29.77 in 10.0 mi North 8.1 mph - N/A   Overcast
2:58 PM 52.2 °F 50.4 °F 94% 29.78 in 10.0 mi North 8.1 mph - N/A   Overcast
3:02 PM 51.8 °F 50.0 °F 94% 29.76 in 10.0 mi North 8.1 mph - N/A   Overcast
3:21 PM 51.8 °F 50.0 °F 94% 29.75 in 10.0 mi North 8.1 mph - N/A   Light Drizzle
3:31 PM 51.8 °F 51.8 °F 100% 29.75 in 10.0 mi North 5.8 mph - N/A   Overcast
3:36 PM 51.8 °F 51.8 °F 100% 29.76 in 10.0 mi North 6.9 mph - N/A   Overcast
3:58 PM 52.3 °F 51.4 °F 97% 29.78 in 10.0 mi North 5.8 mph - 0.00 in   Overcast
4:03 PM 51.8 °F 51.8 °F 100% 29.75 in 10.0 mi North 5.8 mph - N/A   Overcast
4:23 PM 53.6 °F 51.8 °F 94% 29.75 in 10.0 mi North 6.9 mph - N/A   Overcast
4:43 PM 53.6 °F 50.0 °F 88% 29.76 in 10.0 mi North 6.9 mph - N/A   Mostly Cloudy
4:58 PM 53.2 °F 50.9 °F 92% 29.78 in 10.0 mi North 5.8 mph - N/A   Overcast
5:58 PM 53.6 °F 52.0 °F 94% 29.78 in 10.0 mi NNW 4.6 mph - N/A   Overcast
6:08 PM 53.6 °F 51.8 °F 94% 29.76 in 10.0 mi NNW 4.6 mph - N/A   Overcast
6:58 PM 54.0 °F 52.0 °F 93% 29.78 in 10.0 mi NNW 3.5 mph - N/A   Overcast
7:58 PM 53.6 °F 52.3 °F 95% 29.78 in 10.0 mi NW 2.3 mph - N/A   Overcast
8:58 PM 53.6 °F 52.7 °F 97% 29.81 in 10.0 mi West 3.5 mph - N/A   Overcast
9:58 PM 53.8 °F 52.3 °F 95% 29.84 in 10.0 mi West 3.5 mph - N/A   Overcast
10:58 PM 53.6 °F 52.7 °F 97% 29.81 in 10.0 mi West 3.5 mph - N/A   Overcast
11:23 PM 53.6 °F 51.8 °F 94% 29.78 in 10.0 mi NNW 4.6 mph - N/A   Overcast
11:58 PM 53.4 °F 52.9 °F 98% 29.80 in 10.0 mi North 2.3 mph - N/A   Overcast